[[{"header":{"parameterUnit":"m.s-1","parameterCategory":1,"la1":30.2991,"la2":30.254,"lo1":-89.0895,"lo2":-89.0444,"dy":0.0017,"dx":0.0017,"nx":28,"ny":28,"refTime":"2024-03-08T03:00:00:Z","depth":0,"parameterNumber":2,"parameterNumberName":"U-component_of_WINDS"},"data":[0,0,0,0,0,0,0,0,0,0,0,0,0,0,0,0,0,0,0,0,0,0,0,0,0,0,0,0,0,0,0,0,0,0,0,0,0,0,0,0,0,0,0,0,0,0,0,0,0,0,0,0,0,0,0,0,0,0,-3.5069,-3.507,0,-3.5135,-3.5136,-3.5136,-3.5125,-3.5124,-3.5123,-3.5122,-3.5186,-3.5189,-3.5192,0,0,0,0,0,0,0,0,0,0,0,0,0,-3.493,-3.4933,-3.5069,-3.507,-3.5071,-3.5135,-3.5136,-3.5137,-3.5125,-3.5124,-3.5122,-3.5121,-3.5185,-3.5188,-3.5192,0,0,0,0,0,0,0,0,0,0,0,0,0,-3.4993,-3.4934,-3.5069,-3.5073,-3.5074,-3.5135,-3.5136,-3.5137,-3.5125,-3.5124,-3.5122,-3.512,-3.5184,-3.5188,-3.5192,-3.5253,0,0,-3.5205,-3.5207,0,0,0,0,0,0,0,0,-3.4989,-3.4998,-3.5071,-3.5072,-3.5074,-3.512,-3.5111,-3.5176,-3.5126,-3.5106,-3.5122,-3.512,-3.5165,-3.5171,-3.5187,-3.5256,-3.5258,-3.5205,-3.5208,-3.521,-3.5211,0,0,0,0,0,0,0,-3.4985,-3.4995,-3.5095,-3.5072,-3.5074,-3.507,-3.5077,-3.5123,-3.5144,-3.5107,-3.5107,-3.5115,-3.5166,-3.5183,-3.5188,-3.5259,-3.5205,-3.5209,-3.5212,-3.5213,-3.538,-3.5382,0,0,0,0,0,0,-3.498,-3.4991,-3.5093,-3.5097,-3.5027,-3.5074,-3.5082,-3.5107,-3.5144,-3.5148,-3.5116,-3.5114,-3.5177,-3.5184,-3.5191,-3.5263,-3.521,-3.5214,-3.5216,-3.5378,-3.5381,-3.5383,0,0,0,0,0,0,-3.4977,-3.4989,-3.509,-3.5044,-3.5057,-3.5078,-3.5106,-3.5109,-3.5126,-3.5151,-3.5154,-3.513,-3.5176,-3.5185,-3.5237,-3.5265,-3.5216,-3.5219,-3.5376,-3.5379,-3.5382,-3.5408,0,0,0,0,0,0,-3.4973,-3.4988,-3.5012,-3.5045,-3.5059,-3.5136,-3.5108,-3.5112,-3.5134,-3.5132,-3.5164,-3.5168,-3.5175,-3.5231,-3.5242,-3.527,-3.5223,-3.5374,-3.5377,-3.5381,-3.5404,-3.5411,-3.5417,0,0,0,0,0,-3.4968,-3.5016,-3.5013,-3.5025,-3.5089,-3.5138,-3.5146,-3.5154,-3.5136,-3.516,-3.5175,-3.5167,-3.5261,-3.5237,-3.5248,-3.5278,-3.5372,-3.5376,-3.5381,-3.5402,-3.541,-3.5417,0,0,0,0,0,0,-3.4984,-3.502,-3.5017,-3.5077,-3.5105,-3.5136,-3.5165,-3.5162,-3.5195,-3.5191,-3.5198,-3.5206,-3.5259,-3.5274,-3.5247,-3.5338,-3.5314,-3.5321,-3.5326,-3.5334,-3.534,-3.5334,-3.5226,0,0,0,0,0,-3.4995,-3.5032,-3.5061,-3.5111,-3.5126,-3.5144,-3.5165,-3.5169,-3.5197,-3.5208,-3.5228,-3.5255,-3.529,-3.5313,-3.5347,-3.5408,-3.5414,-3.5434,-3.544,-3.5445,-3.545,-3.5482,-3.5491,-3.5397,-3.5397,-3.5397,0,0,-3.5016,-3.5041,-3.5064,-3.5115,-3.5137,-3.5175,-3.5153,-3.5194,-3.5221,-3.5214,-3.5265,-3.528,-3.5311,-3.5368,-3.5394,-3.5382,-3.5478,-3.5451,-3.5454,-3.5457,-3.5487,-3.5496,-3.5504,-3.54,-3.5399,-3.5399,0,0,-3.5075,-3.5098,-3.5142,-3.5165,-3.5198,-3.521,-3.5221,-3.5253,-3.5263,-3.5315,-3.531,-3.5343,-3.5404,-3.5426,-3.5445,-3.5514,-3.5507,-3.5525,-3.5556,-3.5588,-3.5595,-3.5602,-3.5624,-3.5633,-3.5531,-3.5531,-3.5531,0,-3.5097,-3.5155,-3.5164,-3.5206,-3.5228,-3.5225,-3.5269,-3.529,-3.5333,-3.5348,-3.5335,-3.5412,-3.5433,-3.5494,-3.5511,-3.5527,-3.5538,-3.552,-3.5593,-3.56,-3.5606,-3.5628,-3.5637,-3.5533,-3.5532,-3.5532,-3.5532,0,-3.518,-3.522,-3.5251,-3.5293,-3.532,-3.5362,-3.5377,-3.5403,-3.5405,-3.5418,-3.547,-3.5495,-3.5534,-3.555,-3.5552,-3.5611,-3.5603,-3.5592,-3.5567,-3.5617,-3.5637,-3.5646,-3.5535,-3.5534,-3.5534,-3.5533,0,0,-3.5247,-3.5296,-3.5307,-3.5326,-3.5364,-3.5395,-3.5437,-3.5476,-3.5497,-3.5528,-3.5562,-3.5615,-3.5605,-3.5627,-3.5632,-3.566,-3.5711,-3.5645,-3.5646,-3.5655,-3.5776,-3.5783,-3.5792,-3.5708,-3.571,-3.5711,-3.5773,0,-3.5308,-3.5384,-3.5394,-3.546,-3.5497,-3.5495,-3.5532,-3.5559,-3.5573,-3.5605,-3.562,-3.5657,-3.5642,-3.5655,-3.5683,-3.5699,-3.5735,-3.5695,-3.5738,-3.574,-3.5728,-3.5803,-3.581,-3.5867,-3.5781,-3.5783,-3.5784,0,-3.5388,-3.5422,-3.5492,-3.5525,-3.554,-3.5573,-3.561,-3.5642,-3.5672,-3.568,-3.5705,-3.5707,-3.575,-3.5726,-3.5784,-3.5757,-3.5776,-3.5787,-3.5789,-3.5791,-3.5763,-3.5805,-3.5886,-3.5894,-3.5797,-3.5796,-3.5795,0,-3.5429,-3.5491,-3.5541,-3.5558,-3.5598,-3.5621,-3.5639,-3.5668,-3.569,-3.5723,-3.5737,-3.5774,-3.5793,-3.5822,-3.5833,-3.5814,-3.589,-3.5867,-3.5897,-3.5897,-3.5911,-3.5909,-3.5993,-3.5927,-3.5927,-3.5927,-3.5927,0,-3.5494,-3.5536,-3.556,-3.559,-3.5637,-3.565,-3.5696,-3.5713,-3.5739,-3.5771,-3.5773,-3.5804,-3.5818,-3.5851,-3.586,-3.5907,-3.5916,-3.5923,-3.5924,-3.5921,-3.592,-3.5932,-3.5927,-3.5929,-3.5929,-3.5928,-3.5928,0,-3.5546,-3.5563,-3.5617,-3.5652,-3.5661,-3.5694,-3.5723,-3.5752,-3.5767,-3.5808,-3.5819,-3.5841,-3.588,-3.5895,-3.5942,-3.5948,-3.6001,-3.6001,-3.5991,-3.5991,-3.6019,-3.6015,-3.6111,-3.6124,-3.6051,-3.6052,-3.6053,0,-3.5585,-3.5618,-3.5656,-3.5679,-3.5697,-3.5734,-3.5758,-3.5771,-3.5795,-3.5833,-3.5857,-3.5897,-3.5928,-3.599,-3.601,-3.6046,-3.6045,-3.6076,-3.605,-3.6046,-3.6043,-3.604,-3.6042,-3.608,-3.6081,-3.6081,-3.6082,0,-3.5653,-3.566,-3.5694,-3.5732,-3.5761,-3.5791,-3.582,-3.5838,-3.5856,-3.5884,-3.5924,-3.5949,-3.5997,-3.6035,-3.6073,-3.609,-3.6088,-3.609,-3.6099,-3.6095,-3.6087,-3.609,-3.6002,-3.6087,-3.6087,-3.6086,-3.6086,-3.6086,-3.5698,-3.5727,-3.5758,-3.5796,-3.582,-3.5848,-3.5877,-3.5895,-3.5929,-3.597,-3.5977,-3.6019,-3.6049,-3.6099,-3.6118,-3.6151,-3.6143,-3.6155,-3.6158,-3.6161,-3.6161,-3.6084,-3.6158,-3.6158,-3.6158,-3.6158,-3.6158,0,-3.5764,-3.5785,-3.582,-3.5861,-3.5891,-3.5889,-3.5922,-3.5946,-3.5984,-3.6013,-3.6044,-3.609,-3.6127,-3.6151,-3.6188,-3.621,-3.621,-3.6219,-3.6216,-3.622,-3.6168,-3.6156,-3.6218,-3.6218,-3.6218,-3.6218,-3.6218,-3.6218,-3.5802,-3.585,-3.5861,-3.5921,-3.5941,-3.5983,-3.6002,-3.6027,-3.605,-3.6101,-3.6132,-3.6148,-3.6174,-3.6214,-3.6248,-3.6254,-3.6266,-3.6276,-3.628,-3.623,-3.6224,-3.6218,-3.6207,-3.6279,-3.6279,-3.633,-3.633,-3.6331]},{"header":{"parameterUnit":"m.s-1","parameterCategory":1,"la1":30.2991,"la2":30.254,"lo1":-89.0895,"lo2":-89.0444,"dy":0.0017,"dx":0.0017,"nx":28,"ny":28,"refTime":"2024-03-08T03:00:00:Z","depth":0,"parameterNumber":3,"parameterNumberName":"V-component_of_WINDS"},"data":[0,0,0,0,0,0,0,0,0,0,0,0,0,0,0,0,0,0,0,0,0,0,0,0,0,0,0,0,0,0,0,0,0,0,0,0,0,0,0,0,0,0,0,0,0,0,0,0,0,0,0,0,0,0,0,0,0,0,0.938,0.9381,0,0.9492,0.9493,0.9495,0.9558,0.9558,0.9558,0.9558,0.9673,0.9676,0.9678,0,0,0,0,0,0,0,0,0,0,0,0,0,0.9222,0.9224,0.938,0.9381,0.9383,0.9492,0.9493,0.9495,0.9558,0.9558,0.9558,0.9559,0.9672,0.9675,0.9679,0,0,0,0,0,0,0,0,0,0,0,0,0,0.9308,0.9225,0.9379,0.9427,0.9433,0.9492,0.9493,0.9495,0.9558,0.9558,0.9558,0.9559,0.9671,0.9675,0.9679,0.9699,0,0,0.9692,0.9694,0,0,0,0,0,0,0,0,0.9303,0.9313,0.9419,0.9424,0.943,0.9511,0.948,0.9564,0.9558,0.951,0.9558,0.9559,0.9619,0.9627,0.9648,0.9705,0.971,0.9693,0.9695,0.9697,0.9698,0,0,0,0,0,0,0,0.9297,0.9309,0.9424,0.942,0.9427,0.9443,0.9456,0.9496,0.9561,0.9514,0.9519,0.9532,0.9622,0.9643,0.9651,0.9711,0.9693,0.9696,0.9699,0.9701,0.9794,0.9794,0,0,0,0,0,0,0.9283,0.9303,0.9421,0.9428,0.9366,0.9446,0.946,0.9485,0.9561,0.9573,0.9531,0.9534,0.9636,0.9646,0.9655,0.9686,0.9697,0.9701,0.9704,0.9794,0.9794,0.9794,0,0,0,0,0,0,0.9279,0.9293,0.9416,0.9367,0.9384,0.9448,0.9476,0.9487,0.9509,0.9574,0.9586,0.9541,0.9637,0.9649,0.9689,0.9691,0.9703,0.9707,0.9794,0.9794,0.9794,0.9746,0,0,0,0,0,0,0.9274,0.9291,0.9299,0.9367,0.9386,0.9447,0.9476,0.9489,0.9516,0.9521,0.9586,0.9598,0.9638,0.9682,0.9693,0.9697,0.971,0.9794,0.9794,0.9794,0.9748,0.9744,0.9742,0,0,0,0,0,0.9269,0.928,0.9299,0.9313,0.9397,0.9447,0.9458,0.9505,0.9516,0.9525,0.9567,0.9595,0.9689,0.9686,0.9698,0.9704,0.9794,0.9794,0.9794,0.9749,0.9745,0.9742,0,0,0,0,0,0,0.921,0.929,0.9311,0.9345,0.9389,0.9457,0.947,0.9498,0.9539,0.9542,0.9598,0.9612,0.9647,0.9679,0.9674,0.9729,0.9745,0.9747,0.9706,0.9703,0.97,0.9692,0.9714,0,0,0,0,0,0.9201,0.9234,0.9302,0.9326,0.9347,0.9404,0.9428,0.946,0.9507,0.9526,0.9571,0.9617,0.9657,0.9682,0.9722,0.9753,0.9769,0.9763,0.976,0.9757,0.9759,0.978,0.9779,0.9793,0.9793,0.9793,0,0,0.9182,0.923,0.9248,0.9315,0.9353,0.9387,0.9419,0.9454,0.948,0.9531,0.9572,0.9607,0.9661,0.9698,0.9716,0.9726,0.9759,0.9757,0.9754,0.9757,0.978,0.9779,0.9777,0.9793,0.9793,0.9793,0,0,0.9167,0.9205,0.923,0.9268,0.9325,0.9364,0.937,0.9435,0.9461,0.9503,0.9543,0.9575,0.9642,0.968,0.9708,0.971,0.9739,0.9722,0.9705,0.9725,0.9724,0.9724,0.9726,0.9726,0.9723,0.9723,0.9723,0,0.9136,0.9189,0.9239,0.9272,0.9302,0.9351,0.9378,0.9412,0.9479,0.9498,0.9508,0.9595,0.9635,0.9682,0.9683,0.9703,0.9713,0.9714,0.972,0.972,0.972,0.9723,0.9724,0.972,0.9721,0.9721,0.9721,0,0.9151,0.9187,0.92,0.9265,0.9296,0.9325,0.9381,0.9406,0.9436,0.9475,0.9518,0.9568,0.962,0.9634,0.9663,0.9686,0.9691,0.971,0.9727,0.9716,0.972,0.9721,0.9717,0.9718,0.9719,0.9719,0,0,0.91,0.9194,0.9198,0.9229,0.9297,0.9327,0.9359,0.9411,0.9433,0.9478,0.9508,0.9565,0.9584,0.9616,0.965,0.9668,0.9669,0.9685,0.9688,0.9682,0.97,0.9686,0.9686,0.9688,0.9689,0.9689,0.9696,0,0.9095,0.9156,0.9203,0.9246,0.9282,0.933,0.9359,0.9405,0.9442,0.9478,0.9519,0.9559,0.958,0.96,0.962,0.9664,0.9673,0.9664,0.9717,0.9719,0.9703,0.9688,0.9672,0.9676,0.9697,0.9698,0.9698,0,0.9097,0.9142,0.9189,0.9256,0.9273,0.9298,0.9351,0.9384,0.9437,0.9463,0.95,0.9536,0.9574,0.9588,0.9642,0.9635,0.966,0.9685,0.9687,0.9694,0.9708,0.9696,0.9678,0.9679,0.97,0.97,0.97,0,0.9057,0.9129,0.9168,0.9193,0.9271,0.9288,0.9322,0.9375,0.9405,0.9451,0.9471,0.952,0.9548,0.9586,0.9636,0.9641,0.9686,0.9703,0.9709,0.9708,0.9717,0.9715,0.9704,0.9731,0.9731,0.9731,0.9731,0,0.9048,0.9075,0.9151,0.9175,0.9208,0.9262,0.9294,0.9331,0.9379,0.9412,0.9457,0.9486,0.9549,0.9587,0.9626,0.9666,0.9678,0.9701,0.9711,0.9697,0.9694,0.9714,0.9716,0.9731,0.9731,0.9731,0.9731,0,0.9008,0.9061,0.9106,0.9177,0.9196,0.9217,0.9279,0.9304,0.9345,0.9386,0.9399,0.9462,0.9509,0.9562,0.9626,0.9653,0.9691,0.9705,0.9673,0.9679,0.9683,0.9682,0.9685,0.9689,0.9711,0.9711,0.971,0,0.8999,0.9022,0.9096,0.9122,0.9154,0.9194,0.9225,0.928,0.931,0.9374,0.9392,0.9443,0.9487,0.956,0.9612,0.9662,0.9679,0.9676,0.9686,0.9673,0.9681,0.9679,0.9682,0.9673,0.9673,0.9672,0.9672,0,0.8978,0.9003,0.9045,0.9098,0.9133,0.9176,0.9222,0.924,0.9305,0.9337,0.9386,0.942,0.9487,0.9537,0.9594,0.963,0.9662,0.9668,0.9673,0.9659,0.9641,0.9653,0.9666,0.9668,0.9668,0.9669,0.9669,0.9669,0.8955,0.8978,0.9035,0.9081,0.9121,0.9163,0.9191,0.9236,0.9278,0.9337,0.9368,0.9417,0.9472,0.9553,0.9587,0.9628,0.9638,0.9644,0.9646,0.9646,0.9643,0.9634,0.9638,0.9638,0.9638,0.9638,0.9639,0,0.8937,0.8977,0.9019,0.9082,0.9119,0.9146,0.9199,0.9228,0.9271,0.932,0.9362,0.942,0.947,0.9527,0.9581,0.9602,0.9618,0.9614,0.9614,0.9622,0.963,0.9622,0.96,0.96,0.96,0.96,0.96,0.96,0.8932,0.8974,0.9006,0.9069,0.9109,0.9158,0.9185,0.9225,0.9265,0.9327,0.9369,0.9406,0.9459,0.9518,0.9565,0.9581,0.9599,0.9591,0.9611,0.9618,0.9621,0.9624,0.9616,0.9594,0.9594,0.96,0.96,0.96]}]]